Weather History for KDUX - January, 2013

Change the Weather History Date:

Thursday, January 24, 2013

  Actual Average (KBGD) Record (KBGD)
Temperature  
Mean Temperature 33 °F 40 °F  
Max Temperature 42 °F 52 °F 78 °F (1950)
Min Temperature 24 °F 27 °F 5 °F (1963)
Degree Days  
Heating Degree Days 32 25  
Month to date heating degree days 641  
Since 1 July heating degree days 2178  
Cooling Degree Days 0 0  
Month to date cooling degree days 0  
Year to date cooling degree days 0  
Moisture  
Dew Point 25 °F    
Average Humidity 81    
Maximum Humidity 100    
Minimum Humidity 51    
Precipitation  
Precipitation 0.00 in 0.02 in 0.16 in (1978)
Month to date precipitation 0.41  
Year to date precipitation 0.41  
Snow  
Snow 0.00 in - 2.50 in (1978)
Month to date snowfall  
Since 1 July snowfall  
Snow Depth -    
Sea Level Pressure  
Sea Level Pressure 30.11 in    
Wind  
Wind Speed 7 mph (ENE)    
Max Wind Speed 12 mph    
Max Gust Speed -    
Visibility 8 miles    
Events Fog    
T = Trace of Precipitation, MM = Missing Value Source: NWS Daily Summary

Daily Weather History Graph

Daily Weather History Graph

Search for Another Location

Airport or City:

Trip Planner

Search our weather history database for the weather conditions in past years. The results will help you decide how hot, cold, wet, or windy it might be!

Date:

Astronomy

Jan. 24, 2013 Rise Set
Actual Time 7:53 AM CST 6:07 PM CST
Civil Twilight 7:26 AM CST 6:34 PM CST
Nautical Twilight 6:55 AM CST 7:05 PM CST
Astronomical Twilight 6:24 AM CST 7:35 PM CST
Moon 4:12 PM CST (1/24) 5:51 AM CST (1/24)
Length of Visible Light 11h 08m
Length of Day
10h 13m
Waxing Gibbous, 94% of the Moon is Illuminated
Jan 24
Waxing Gibbous
Jan 26
Full
Feb 3
Last Quarter
Feb 10
New
Feb 17
First Quarter

Hourly Weather History & Observations

Time (CST) Temp. Windchill Dew Point Humidity Pressure Visibility Wind Dir Wind Speed Gust Speed Precip Events Conditions
12:15 AM 32.0 °F 24.8 °F 15.8 °F 51% 30.15 in 10.0 mi North 8.1 mph - N/A   Clear
12:35 AM 32.0 °F 24.2 °F 19.4 °F 60% 30.14 in 10.0 mi NNE 9.2 mph - N/A   Clear
12:55 AM 33.8 °F 25.8 °F 26.6 °F 75% 30.14 in 10.0 mi NNE 10.4 mph - N/A   Clear
1:15 AM 32.0 °F 24.8 °F 26.6 °F 80% 30.15 in 10.0 mi North 8.1 mph - N/A   Clear
1:35 AM 32.0 °F 23.6 °F 26.6 °F 80% 30.14 in 10.0 mi NNE 10.4 mph - N/A   Clear
1:55 AM 30.2 °F 22.6 °F 24.8 °F 80% 30.15 in 10.0 mi North 8.1 mph - N/A   Clear
2:15 AM 30.2 °F 22.6 °F 24.8 °F 80% 30.16 in 10.0 mi North 8.1 mph - N/A   Clear
2:35 AM 30.2 °F 23.4 °F 24.8 °F 80% 30.17 in 10.0 mi North 6.9 mph - N/A   Clear
2:55 AM 28.4 °F - 24.8 °F 86% 30.17 in 10.0 mi Calm Calm - N/A   Clear
3:15 AM 26.6 °F 17.5 °F 23.0 °F 86% 30.19 in 10.0 mi North 9.2 mph - N/A   Clear
3:35 AM 24.8 °F 14.6 °F 21.2 °F 86% 30.20 in 10.0 mi North 10.4 mph - N/A   Clear
3:55 AM 24.8 °F 15.3 °F 23.0 °F 93% 30.19 in 7.0 mi North 9.2 mph - N/A   Clear
4:15 AM 26.6 °F 18.2 °F 23.0 °F 86% 30.17 in 7.0 mi North 8.1 mph - N/A   Clear
4:35 AM 24.8 °F 16.1 °F 21.2 °F 86% 30.18 in 7.0 mi North 8.1 mph - N/A   Clear
4:55 AM 24.8 °F 16.1 °F 21.2 °F 86% 30.19 in 7.0 mi North 8.1 mph - N/A   Scattered Clouds
5:15 AM 24.8 °F 14.6 °F 21.2 °F 86% 30.20 in 10.0 mi North 10.4 mph - N/A   Mostly Cloudy
5:35 AM 26.6 °F 16.8 °F 21.2 °F 80% 30.20 in 10.0 mi North 10.4 mph - N/A   Overcast
5:55 AM 26.6 °F 16.8 °F 21.2 °F 80% 30.20 in 10.0 mi North 10.4 mph - N/A   Overcast
6:15 AM 26.6 °F 16.2 °F 21.2 °F 80% 30.20 in 10.0 mi North 11.5 mph - N/A   Overcast
6:35 AM 26.6 °F 17.5 °F 21.2 °F 80% 30.20 in 10.0 mi North 9.2 mph - N/A   Overcast
6:55 AM 26.6 °F 17.5 °F 21.2 °F 80% 30.20 in 10.0 mi North 9.2 mph - N/A   Overcast
7:15 AM 26.6 °F 18.2 °F 21.2 °F 80% 30.20 in 10.0 mi North 8.1 mph - N/A   Overcast
7:35 AM 24.8 °F 16.1 °F 21.2 °F 86% 30.20 in 10.0 mi North 8.1 mph - N/A   Overcast
7:55 AM 24.8 °F 16.1 °F 21.2 °F 86% 30.20 in 7.0 mi NNE 8.1 mph - N/A   Overcast
8:15 AM 24.8 °F 16.9 °F 23.0 °F 93% 30.20 in 2.5 mi NNE 6.9 mph - N/A   Overcast
8:35 AM 24.8 °F 16.1 °F 23.0 °F 93% 30.21 in 1.2 mi North 8.1 mph - N/A   Overcast
8:55 AM 24.8 °F 19.1 °F 23.0 °F 93% 30.20 in 0.8 mi North 4.6 mph - N/A   Overcast
9:15 AM 24.8 °F 20.5 °F 24.8 °F 100% 30.20 in 0.8 mi North 3.5 mph - N/A   Overcast
9:35 AM 24.8 °F - 24.8 °F 100% 30.20 in 0.5 mi Calm Calm - N/A Fog Light Freezing Fog
9:55 AM 26.6 °F - 24.8 °F 93% 30.20 in 0.5 mi Calm Calm - N/A Fog Light Freezing Fog
10:15 AM 26.6 °F 22.6 °F 26.6 °F 100% 30.20 in 0.5 mi NE 3.5 mph - N/A Fog Light Freezing Fog
10:35 AM 26.6 °F - 26.6 °F 100% 30.20 in 0.8 mi Calm Calm - N/A   Overcast
10:55 AM 28.4 °F - 26.6 °F 93% 30.20 in 0.8 mi Calm Calm - N/A   Overcast
11:15 AM 28.4 °F 23.3 °F 28.4 °F 100% 30.19 in 1.2 mi SW 4.6 mph - N/A   Overcast
11:35 AM 30.2 °F 24.3 °F 28.4 °F 93% 30.16 in 3.0 mi SW 5.8 mph - N/A   Overcast
11:55 AM 30.2 °F 26.7 °F 28.4 °F 93% 30.16 in 4.0 mi SSW 3.5 mph - N/A   Overcast
12:15 PM 32.0 °F 24.8 °F 28.4 °F 87% 30.15 in 5.0 mi SW 8.1 mph - N/A   Overcast
12:35 PM 33.8 °F 27.7 °F 28.4 °F 81% 30.13 in 7.0 mi SW 6.9 mph - N/A   Mostly Cloudy
12:55 PM 33.8 °F 30.8 °F 28.4 °F 81% 30.12 in 7.0 mi SW 3.5 mph - N/A   Scattered Clouds
1:15 PM 35.6 °F - 28.4 °F 75% 30.11 in 7.0 mi Calm Calm - N/A   Clear
1:35 PM 37.4 °F 32.1 °F 30.2 °F 75% 30.08 in 10.0 mi SE 6.9 mph - N/A   Clear
1:55 PM 37.4 °F 34.9 °F 28.4 °F 70% 30.06 in 10.0 mi East 3.5 mph - N/A   Clear
2:15 PM 39.2 °F 35.0 °F 28.4 °F 65% 30.08 in 10.0 mi SSW 5.8 mph - N/A   Clear
2:35 PM 41.0 °F 36.4 °F 28.4 °F 61% 30.07 in 10.0 mi South 6.9 mph - N/A   Clear
2:55 PM 41.0 °F 38.0 °F 28.4 °F 61% 30.06 in 10.0 mi SSE 4.6 mph - N/A   Clear
3:15 PM 42.8 °F 38.6 °F 28.4 °F 57% 30.05 in 10.0 mi ESE 6.9 mph - N/A   Clear
3:35 PM 42.8 °F 39.3 °F 28.4 °F 57% 30.04 in 10.0 mi SSE 5.8 mph - N/A   Clear
3:55 PM 41.0 °F 35.8 °F 28.4 °F 61% 30.03 in 10.0 mi SE 8.1 mph - N/A   Clear
4:15 PM 41.0 °F 35.2 °F 28.4 °F 61% 30.03 in 10.0 mi SE 9.2 mph - N/A   Clear
4:35 PM 37.4 °F 32.1 °F 28.4 °F 70% 30.03 in 10.0 mi ESE 6.9 mph - N/A   Clear
4:55 PM 37.4 °F 31.4 °F 28.4 °F 70% 30.02 in 10.0 mi SE 8.1 mph - N/A   Clear
5:15 PM 35.6 °F 29.2 °F 28.4 °F 75% 30.02 in 7.0 mi ESE 8.1 mph - N/A   Clear
5:35 PM 35.6 °F 31.7 °F 26.6 °F 70% 30.01 in 10.0 mi ESE 4.6 mph - N/A   Clear
5:55 PM 33.8 °F 29.6 °F 26.6 °F 75% 30.01 in 10.0 mi East 4.6 mph - N/A   Clear
6:15 PM 32.0 °F 28.7 °F 26.6 °F 80% 30.01 in 10.0 mi ESE 3.5 mph - N/A   Clear
6:35 PM 32.0 °F 28.7 °F 26.6 °F 80% 30.01 in 7.0 mi East 3.5 mph - N/A   Clear
6:55 PM 32.0 °F 28.7 °F 26.6 °F 80% 30.01 in 10.0 mi ESE 3.5 mph - N/A   Clear
7:15 PM 32.0 °F 26.4 °F 24.8 °F 75% 30.02 in 10.0 mi East 5.8 mph - N/A   Clear
7:35 PM 32.0 °F 26.4 °F 24.8 °F 75% 30.02 in 10.0 mi ESE 5.8 mph - N/A   Clear
7:55 PM 32.0 °F 27.5 °F 26.6 °F 80% 30.03 in 10.0 mi ESE 4.6 mph - N/A   Clear
8:15 PM 30.2 °F 24.3 °F 24.8 °F 80% 30.03 in 10.0 mi ESE 5.8 mph - N/A   Clear
8:35 PM 28.4 °F 22.2 °F 23.0 °F 80% 30.02 in 7.0 mi ESE 5.8 mph - N/A   Clear
8:55 PM 30.2 °F 24.3 °F 24.8 °F 80% 30.02 in 7.0 mi ESE 5.8 mph - N/A   Clear
9:15 PM 30.2 °F 22.6 °F 24.8 °F 80% 30.02 in 7.0 mi SE 8.1 mph - N/A   Clear
9:35 PM 28.4 °F 21.2 °F 24.8 °F 86% 30.02 in 7.0 mi SE 6.9 mph - N/A   Clear
9:55 PM 30.2 °F 24.3 °F 26.6 °F 86% 30.02 in 7.0 mi SE 5.8 mph - N/A   Clear
10:15 PM 30.2 °F 22.6 °F 26.6 °F 86% 30.02 in 7.0 mi SE 8.1 mph - N/A   Clear
10:35 PM 30.2 °F 24.3 °F 26.6 °F 86% 30.02 in 7.0 mi SE 5.8 mph - N/A   Clear
10:55 PM 30.2 °F 25.4 °F 26.6 °F 86% 30.02 in 7.0 mi SE 4.6 mph - N/A   Clear
11:15 PM 30.2 °F - 26.6 °F 86% 30.03 in 7.0 mi Calm Calm - N/A   Clear
11:35 PM 30.2 °F 25.4 °F 26.6 °F 86% 30.02 in 7.0 mi South 4.6 mph - N/A   Clear
11:55 PM 30.2 °F - 26.6 °F 86% 30.03 in 7.0 mi Calm Calm - N/A   Clear